Temperature
17 17 16 16 15 15 15 14 14 14 14 14 13 13 13 13 13 13 13 13 13 12 12 12 12 11 10 10 10 10 11 11 12 11 11 12 12 12 12 12 11 11 11
17 16 16 15 15 15 14 14 14 14 14 13 13 13 13 13 13 13 13 13 13 13 12 12 12 11 10 10 10 11 10 10 10 10 10 10 11 11 11 11 11 11 11
16 15 15 15 15 14 14 13 13 13 13 13 13 12 12 13 13 13 13 13 13 12 12 12 12 11 11 10 10 10 10 11 10 10 10 10 10 10 10 10 10 10 10
15 15 14 14 14 13 13 13 12 12 12 12 12 12 12 12 12 12 12 12 12 12 12 12 12 12 11 11 10 10 10 10 10 10 10 10 10 10 10 10 10 10 9
14 14 14 13 13 13 12 12 12 12 12 12 12 12 12 12 12 12 12 12 12 12 12 12 12 12 12 11 11 10 10 10 10 10 10 10 10 10 10 10 10 10 10
14 13 13 13 12 12 12 12 12 12 12 12 11 12 12 12 12 12 12 12 12 13 13 12 12 12 12 12 12 11 10 10 10 10 10 10 10 10 10 10 10 10 10
13 13 13 13 12 12 12 12 12 12 12 12 11 11 12 12 12 13 13 13 13 13 13 12 12 12 12 12 12 12 12 12 11 10 10 10 10 10 10 10 10 10 10
13 13 12 12 12 12 12 12 11 11 11 11 10 10 10 11 12 13 13 13 13 13 12 12 12 12 12 12 12 12 12 12 12 12 11 10 10 10 10 10 10 10 10
12 12 11 11 11 11 11 11 11 10 10 10 10 10 10 10 10 11 12 12 12 12 12 12 12 12 12 12 12 12 12 12 12 12 12 12 11 10 10 10 10 10 10
11 11 11 11 11 11 10 10 10 10 9 9 9 9 9 9 9 9 10 10 11 11 11 11 11 11 11 11 11 12 12 12 12 12 11 11 11 10 10 10 10 10 10
11 11 11 11 10 10 10 9 9 9 9 8 8 8 8 8 8 7 8 8 9 9 10 10 10 10 10 10 10 11 11 11 11 11 11 10 10 10 10 10 10 10 10
11 11 10 10 9 9 8 8 8 8 8 8 8 7 7 6 6 6 5 6 7 7 8 9 9 9 9 9 10 10 10 10 10 10 10 10 10 10 10 10 10 10 10
10 10 9 9 8 8 7 7 7 7 7 6 6 6 6 5 5 4 4 5 5 6 6 7 8 8 8 8 9 9 9 9 9 9 9 9 10 10 10 10 10 10 10
8 8 8 7 7 7 7 6 6 5 5 4 4 4 4 4 4 4 4 4 4 5 6 6 7 7 7 7 8 8 8 8 9 9 8 8 9 9 10 10 10 10 10
7 7 6 6 6 6 6 5 5 4 4 3 3 3 3 3 3 3 3 3 3 3 4 5 5 5 5 5 6 6 7 8 8 8 8 8 8 8 9 9 9 10 10
6 6 6 5 5 5 5 5 4 4 3 2 2 2 2 2 2 2 2 2 2 1 2 3 3 3 3 4 4 5 5 6 7 7 8 8 8 8 8 8 9 9 9
5 5 5 5 5 4 4 4 3 3 2 1 1 0 0 -0 0 0 1 1 1 1 0 1 1 2 3 3 3 3 4 5 6 6 7 7 8 8 8 8 8 8 9
5 4 4 4 4 4 3 3 2 2 1 -0 -1 -2 -2 -2 -1 -1 -1 -0 -0 -1 -1 -1 -0 0 1 2 2 2 3 3 4 5 6 7 7 7 7 8 8 8 8
4 4 4 3 3 3 3 2 2 1 0 -1 -2 -3 -3 -2 -2 -2 -2 -2 -2 -2 -2 -2 -2 -1 -1 -0 0 1 2 2 3 4 4 5 6 7 7 7 7 8 8
3 3 3 2 2 2 2 1 1 0 -1 -2 -3 -3 -3 -3 -3 -3 -3 -3 -3 -3 -3 -3 -3 -3 -2 -1 -1 -1 -0 1 1 2 3 4 5 6 6 7 7 7 7
2 2 2 1 1 1 0 -1 -1 -2 -3 -3 -3 -3 -4 -4 -5 -4 -4 -4 -4 -4 -4 -4 -3 -3 -3 -3 -2 -2 -1 -0 0 1 1 2 3 4 5 6 6 7 7
1 1 1 0 -0 -1 -1 -2 -4 -4 -4 -5 -5 -4 -5 -5 -6 -5 -5 -5 -5 -4 -4 -4 -4 -4 -4 -4 -3 -2 -2 -1 -1 0 1 1 2 2 4 5 5 6 6
0 0 -0 -1 -1 -2 -3 -4 -5 -6 -6 -6 -6 -6 -6 -6 -6 -6 -6 -5 -5 -5 -5 -5 -5 -5 -4 -4 -3 -3 -2 -2 -2 -1 -0 0 1 2 3 4 5 5 5
-1 -1 -2 -2 -3 -3 -4 -5 -7 -7 -7 -6 -6 -6 -6 -6 -6 -6 -6 -6 -6 -6 -6 -5 -5 -4 -4 -3 -3 -3 -3 -3 -2 -1 0 1 1 2 3 3 4 5 5
-2 -3 -3 -4 -4 -4 -5 -7 -7 -7 -7 -7 -7 -7 -7 -7 -7 -7 -6 -7 -7 -6 -6 -6 -6 -5 -4 -4 -4 -4 -3 -3 -2 -2 -1 0 1 2 2 3 4 4 4
-4 -4 -4 -4 -5 -6 -7 -8 -8 -8 -7 -7 -7 -7 -7 -7 -7 -7 -7 -7 -7 -7 -7 -7 -6 -6 -5 -5 -5 -4 -4 -4 -4 -3 -2 -0 0 1 2 2 3 3 3
Wind_Speed
6 5 4 6 7 9 7 6 6 8 9 8 9 9 9 10 13 14 16 22 25 26 27 29 30 30 31 31 31 31 30 30 30 29 29 29 29 28 28 28 27 27 27
5 6 6 5 6 8 9 7 8 8 8 8 10 10 11 10 12 14 16 19 24 27 28 28 31 32 33 34 34 34 33 33 33 32 32 31 31 31 30 30 30 29 29
7 5 6 7 8 9 9 7 7 6 9 9 12 12 11 11 12 13 15 16 18 23 28 30 32 33 34 35 35 36 35 35 35 35 35 34 34 33 33 33 32 32 31
10 5 7 9 7 7 5 7 7 7 10 9 10 11 11 11 13 13 13 15 15 17 23 30 32 34 35 36 37 37 37 35 33 34 35 36 36 36 36 35 35 34 34
10 6 8 9 6 5 6 8 7 7 10 11 11 11 10 11 13 14 15 14 15 17 18 24 29 32 34 36 37 38 38 37 33 32 33 34 36 37 38 37 37 36 36
8 6 7 8 6 6 7 6 9 9 10 12 13 13 12 12 12 13 15 15 15 16 18 19 19 20 29 34 36 37 38 38 36 34 33 33 34 35 38 39 38 38 38
6 4 5 7 6 6 9 9 9 10 10 8 8 10 11 12 13 13 14 14 15 17 15 16 15 14 15 26 32 34 35 36 36 36 36 35 35 36 38 39 39 39 39
8 5 6 5 6 6 8 8 8 8 8 6 5 6 7 6 9 12 12 13 15 14 15 17 17 16 13 11 17 28 32 34 34 35 35 35 36 37 38 38 38 38 38
12 9 10 8 8 7 6 8 7 8 9 7 6 7 8 8 5 6 9 11 13 12 13 14 16 17 17 14 13 19 27 32 34 34 34 34 35 36 36 37 38 38 37
10 11 8 9 8 7 8 8 8 7 8 8 7 6 9 10 11 8 5 7 9 11 13 12 13 15 16 15 16 21 26 31 35 35 35 35 35 35 36 36 37 38 37
8 11 9 9 9 7 8 8 8 8 6 6 7 8 9 9 9 11 14 9 8 8 9 11 12 12 14 15 15 19 27 32 35 36 36 35 35 36 36 36 36 36 36
7 11 10 9 9 8 9 8 8 9 7 8 7 7 8 7 9 9 13 16 13 10 10 9 10 10 11 13 17 22 26 31 34 35 36 36 35 35 36 36 36 36 35
6 11 10 10 10 10 9 9 9 9 9 9 8 8 7 8 8 10 12 14 16 12 10 9 9 10 9 9 11 18 22 27 32 34 36 37 36 34 34 35 36 35 35
7 10 10 10 11 11 11 10 8 9 9 9 10 10 8 8 9 9 10 12 15 13 11 10 6 7 7 8 12 18 15 21 25 31 34 35 34 32 31 32 34 33 32
8 9 9 10 10 11 11 11 9 11 10 9 10 10 10 10 9 9 9 9 11 16 17 15 8 8 8 9 15 14 14 19 23 26 29 30 31 32 32 31 30 30 29
8 9 9 10 10 10 11 11 11 10 10 10 10 12 12 10 10 8 7 8 9 12 15 15 12 11 11 13 16 15 16 22 25 27 27 26 28 31 33 33 31 29 29
8 9 10 10 11 11 12 12 11 11 13 13 11 13 14 13 10 9 9 9 8 9 13 16 13 12 14 15 15 13 14 15 15 23 27 27 28 29 30 31 31 30 29
8 8 9 9 10 11 11 11 11 12 13 14 13 12 13 12 12 11 11 11 9 7 9 16 17 14 14 13 15 16 15 14 14 20 25 27 27 27 27 28 28 29 28
9 9 9 10 11 12 12 10 10 12 12 12 11 12 14 13 12 12 13 12 8 9 8 12 16 14 13 11 14 15 15 13 14 15 21 23 23 24 24 25 26 26 26
9 10 11 10 11 13 11 11 14 13 12 11 10 11 13 13 15 15 14 11 10 11 10 11 13 14 13 12 11 13 14 11 13 13 19 20 21 23 24 24 24 23 23
10 10 11 11 11 12 12 17 16 16 14 14 13 12 13 20 23 20 18 16 16 14 13 14 15 15 14 12 12 12 16 15 13 10 13 14 12 11 11 16 19 22 24
10 10 11 13 13 14 23 26 22 15 15 15 17 16 16 16 21 28 30 28 26 21 19 18 18 20 20 17 15 15 16 18 18 7 10 11 8 12 11 10 17 21 22
10 11 11 12 13 16 25 27 27 19 14 15 16 16 17 18 23 16 23 28 25 31 30 23 22 22 22 20 20 19 18 20 21 13 14 19 12 15 12 14 21 22 22
10 10 12 13 13 17 25 27 28 16 13 14 15 15 16 16 18 23 21 20 19 20 24 20 18 20 20 19 19 20 21 21 20 16 14 17 12 12 10 9 17 21 21
11 10 12 12 14 17 24 27 27 14 13 14 14 14 17 16 27 33 25 23 23 20 25 30 32 29 31 30 25 18 17 17 18 14 9 10 10 7 5 6 9 15 14
11 13 13 12 13 14 22 26 27 14 15 14 13 13 20 24 30 34 24 22 22 21 22 23 23 23 19 20 25 17 14 15 16 13 7 5 5 3 4 2 4 3 6
Wind_Direction
227 226 225 235 239 241 240 243 245 249 253 254 255 250 249 248 253 253 258 260 261 263 264 261 260 260 260 257 251 248 248 248 248 247 246 245 245 245 244 243 242 242 242
226 234 243 243 242 242 244 245 247 253 258 257 260 253 253 251 252 250 250 254 257 259 260 262 259 259 260 261 259 253 249 247 247 247 247 247 246 246 246 246 246 245 244
231 236 249 252 249 244 244 249 252 253 261 258 261 258 256 253 251 250 250 251 252 255 256 258 258 257 258 259 260 260 258 253 250 248 247 247 246 246 246 246 246 246 246
234 233 250 260 255 245 239 248 253 255 260 261 264 264 260 259 256 254 253 253 251 251 253 254 255 256 256 257 257 258 259 259 256 253 251 250 249 248 247 247 246 246 246
246 241 256 266 267 256 252 257 261 249 268 272 270 271 264 258 259 258 255 252 250 249 249 252 251 251 253 255 256 257 257 258 257 256 254 252 251 251 251 250 248 247 247
257 246 260 272 279 276 274 263 267 266 268 276 282 281 275 266 260 258 256 256 252 249 247 248 249 250 249 252 254 256 257 257 257 257 257 256 254 252 252 252 251 250 249
286 264 275 285 286 280 282 281 278 280 280 277 280 283 276 262 258 257 254 254 254 252 249 248 250 248 250 249 250 251 253 254 255 256 256 255 254 254 253 253 252 251 250
21 15 355 337 327 315 311 307 298 291 287 270 261 282 286 270 249 248 248 249 251 250 248 246 246 246 246 247 246 245 246 249 250 252 253 254 253 253 252 252 251 250 250
38 33 26 18 7 2 346 334 327 315 310 299 258 266 288 288 282 253 247 249 249 248 248 246 244 243 243 243 245 246 244 247 250 252 252 252 252 252 252 251 250 249 249
30 23 16 11 4 0 354 348 349 338 332 327 320 284 286 298 302 300 260 259 262 259 257 256 253 249 246 247 245 241 243 246 251 254 255 254 252 251 251 251 250 250 249
20 17 10 5 358 352 344 340 339 335 330 322 320 317 315 313 303 307 304 299 288 272 269 264 262 258 253 249 250 248 246 249 254 258 258 257 256 253 250 249 249 250 249
7 10 2 359 352 348 341 335 328 323 316 310 310 307 308 305 310 307 303 304 299 293 287 282 276 269 262 255 252 250 248 251 255 259 262 262 260 257 254 250 249 249 250
358 359 356 352 349 343 337 334 327 321 311 312 308 306 303 296 298 298 299 302 301 298 283 273 272 278 277 270 268 261 258 256 257 260 263 265 264 261 258 254 252 251 251
348 350 348 346 343 339 338 334 327 321 319 314 312 310 309 302 296 293 292 299 302 301 295 286 275 282 299 298 291 287 283 270 263 263 264 264 263 262 259 256 253 252 252
351 346 340 341 339 336 336 334 328 323 323 322 319 313 310 307 300 294 290 295 301 305 302 302 298 293 293 294 292 294 290 285 278 271 266 260 256 256 257 257 255 252 250
345 339 340 338 337 335 334 331 329 325 332 329 321 314 312 309 305 299 298 299 294 294 296 298 302 305 302 298 292 290 289 286 284 281 276 266 257 252 253 254 254 253 252
340 341 339 338 337 335 333 330 327 333 330 323 319 318 316 315 318 318 311 304 298 297 301 302 305 309 306 302 301 295 292 289 286 280 278 273 265 258 254 253 252 252 251
338 337 335 334 334 333 327 322 325 330 321 320 322 325 326 327 321 317 310 302 293 296 300 303 303 303 300 300 300 300 298 294 289 285 283 280 276 269 263 258 256 253 251
338 339 337 334 331 329 323 318 321 320 316 315 321 327 323 317 310 308 304 296 288 300 288 290 295 298 297 299 301 300 297 295 294 293 292 290 285 280 273 267 262 257 252
337 337 334 330 328 326 321 325 326 322 318 316 318 316 314 311 309 308 305 296 300 299 289 287 290 294 295 293 292 298 299 293 293 295 294 290 284 277 274 273 269 263 256
338 329 329 328 328 326 328 329 327 323 320 320 318 312 309 312 313 314 314 313 309 304 302 301 299 297 295 296 294 293 293 294 287 282 287 285 280 276 274 273 268 262 257
329 328 328 327 328 330 327 328 328 321 319 320 318 316 313 310 313 318 314 310 309 309 310 305 301 297 295 293 292 292 294 295 294 266 269 279 279 282 277 268 265 261 257
324 325 324 324 321 320 324 326 324 324 317 314 311 312 315 317 318 307 307 312 310 307 303 297 293 291 290 290 292 295 294 291 288 283 285 282 272 272 270 267 267 262 259
322 321 319 316 313 316 323 323 323 323 312 306 306 307 309 309 312 316 315 314 308 305 300 299 292 289 289 291 292 294 293 289 284 278 265 272 270 267 267 264 266 261 259
321 315 312 310 310 313 319 321 324 317 311 307 306 308 312 312 315 321 321 315 312 310 309 306 304 303 302 303 301 298 294 294 295 293 279 270 271 265 265 267 266 258 245
310 311 310 307 304 307 313 322 324 317 315 314 312 310 315 318 320 323 322 318 316 313 311 311 309 305 299 295 298 297 299 301 300 297 286 268 270 262 271 302 308 268 191
Height
1496 1495 1495 1494 1493 1493 1492 1491 1489 1488 1486 1485 1483 1481 1480 1479 1477 1476 1474 1474 1473 1472 1471 1471 1471 1471 1472 1473 1473 1471 1471 1470 1470 1470 1471 1471 1471 1472 1472 1473 1473 1473 1474
1494 1493 1492 1491 1491 1490 1489 1487 1485 1484 1481 1480 1478 1476 1475 1474 1472 1470 1468 1467 1466 1465 1464 1463 1463 1463 1463 1464 1465 1465 1464 1463 1463 1463 1463 1463 1464 1464 1465 1465 1466 1466 1467
1492 1491 1489 1488 1488 1486 1485 1482 1480 1478 1476 1473 1471 1469 1468 1466 1464 1462 1461 1459 1458 1457 1456 1455 1454 1453 1453 1453 1455 1456 1456 1455 1455 1455 1455 1455 1455 1456 1456 1457 1457 1458 1459
1489 1488 1486 1485 1483 1482 1479 1477 1475 1472 1470 1467 1464 1462 1459 1457 1455 1453 1452 1450 1449 1447 1446 1446 1445 1443 1443 1442 1443 1444 1445 1445 1446 1446 1446 1446 1446 1447 1447 1447 1448 1449 1450
1485 1483 1482 1480 1479 1476 1474 1472 1469 1467 1463 1460 1457 1454 1451 1449 1447 1445 1443 1441 1440 1438 1436 1435 1434 1433 1432 1431 1431 1431 1432 1433 1434 1434 1435 1435 1436 1436 1437 1437 1438 1438 1439
1480 1478 1477 1476 1474 1471 1469 1467 1464 1461 1458 1455 1451 1447 1445 1443 1440 1437 1435 1433 1431 1428 1426 1425 1423 1421 1421 1420 1419 1418 1418 1419 1420 1420 1421 1422 1423 1424 1425 1426 1426 1427 1428
1475 1474 1472 1471 1469 1466 1464 1462 1459 1456 1453 1450 1445 1440 1437 1436 1434 1431 1428 1425 1423 1420 1418 1416 1414 1412 1410 1410 1409 1408 1407 1406 1406 1406 1406 1407 1408 1410 1411 1413 1414 1415 1415
1472 1471 1469 1467 1464 1462 1459 1457 1454 1450 1447 1446 1441 1435 1429 1425 1423 1421 1419 1416 1414 1412 1409 1407 1405 1403 1401 1400 1398 1398 1398 1396 1395 1393 1392 1392 1393 1395 1396 1398 1399 1401 1402
1471 1469 1467 1465 1462 1459 1456 1454 1450 1446 1442 1440 1438 1434 1427 1417 1414 1411 1410 1407 1404 1401 1399 1397 1395 1394 1392 1390 1388 1387 1387 1386 1385 1383 1381 1380 1380 1380 1382 1383 1385 1386 1388
1470 1468 1466 1463 1461 1457 1454 1451 1448 1444 1439 1435 1432 1429 1426 1419 1412 1402 1399 1399 1397 1393 1390 1388 1385 1383 1382 1380 1378 1376 1376 1375 1374 1372 1371 1369 1367 1367 1368 1370 1372 1373 1375
1469 1467 1464 1461 1458 1454 1451 1447 1444 1440 1436 1431 1427 1423 1418 1414 1410 1403 1393 1389 1387 1385 1383 1380 1376 1374 1371 1369 1367 1365 1364 1363 1362 1361 1359 1357 1356 1355 1355 1356 1358 1360 1362
1467 1464 1461 1457 1454 1450 1446 1442 1439 1435 1431 1426 1422 1417 1412 1408 1403 1398 1391 1382 1377 1374 1373 1371 1368 1365 1363 1360 1357 1354 1352 1350 1349 1348 1347 1346 1345 1344 1344 1344 1345 1347 1349
1463 1459 1456 1452 1448 1444 1440 1436 1432 1428 1424 1419 1415 1410 1406 1401 1397 1393 1387 1378 1370 1364 1362 1360 1359 1357 1354 1352 1348 1345 1342 1339 1337 1336 1335 1334 1333 1332 1332 1332 1333 1335 1336
1460 1456 1453 1448 1444 1440 1435 1430 1425 1421 1417 1412 1408 1403 1398 1394 1390 1386 1381 1374 1365 1356 1352 1350 1349 1348 1346 1343 1339 1337 1333 1329 1326 1324 1322 1321 1320 1319 1319 1320 1320 1322 1323
1457 1453 1449 1444 1440 1435 1430 1425 1420 1415 1410 1406 1401 1396 1392 1387 1383 1379 1375 1370 1365 1354 1345 1339 1337 1335 1334 1332 1329 1326 1322 1319 1316 1312 1309 1308 1307 1306 1305 1306 1307 1308 1310
1453 1449 1445 1440 1435 1430 1425 1420 1415 1410 1405 1400 1395 1390 1385 1381 1376 1372 1368 1363 1359 1353 1342 1333 1328 1324 1322 1320 1317 1314 1311 1307 1304 1301 1297 1295 1293 1292 1291 1291 1291 1293 1295
1449 1445 1440 1436 1431 1426 1421 1416 1411 1405 1400 1394 1389 1384 1379 1375 1370 1365 1361 1356 1351 1346 1338 1327 1321 1316 1313 1309 1306 1303 1300 1296 1292 1289 1286 1283 1281 1280 1278 1278 1278 1279 1280
1445 1441 1436 1432 1427 1422 1417 1411 1405 1399 1394 1388 1382 1378 1373 1368 1364 1359 1353 1348 1343 1338 1332 1322 1312 1307 1303 1300 1296 1291 1288 1284 1280 1277 1274 1271 1269 1267 1266 1265 1265 1265 1266
1441 1437 1432 1427 1422 1417 1411 1406 1400 1394 1388 1383 1377 1371 1366 1361 1355 1349 1345 1339 1334 1329 1323 1316 1306 1299 1293 1291 1286 1281 1277 1273 1269 1266 1263 1259 1257 1256 1254 1253 1253 1252 1253
1437 1433 1428 1424 1418 1412 1407 1400 1394 1388 1382 1376 1371 1365 1359 1354 1348 1342 1336 1332 1326 1319 1313 1307 1299 1291 1285 1281 1278 1271 1264 1261 1257 1255 1251 1248 1246 1244 1243 1242 1241 1241 1241
1433 1429 1424 1418 1413 1407 1401 1395 1388 1381 1375 1369 1363 1358 1353 1347 1342 1337 1332 1325 1318 1311 1305 1298 1290 1283 1277 1272 1268 1263 1256 1249 1245 1245 1241 1237 1236 1233 1231 1230 1229 1229 1229
1429 1424 1418 1412 1407 1401 1396 1389 1384 1376 1370 1363 1356 1350 1345 1340 1335 1330 1325 1319 1313 1306 1298 1291 1283 1276 1270 1265 1259 1254 1248 1241 1233 1234 1233 1226 1226 1222 1219 1219 1218 1217 1217
1423 1418 1413 1407 1401 1395 1389 1383 1377 1372 1365 1358 1351 1345 1339 1334 1328 1321 1315 1309 1304 1298 1292 1285 1275 1268 1262 1257 1251 1245 1240 1233 1226 1223 1223 1213 1213 1210 1208 1207 1207 1206 1205
1418 1412 1407 1401 1395 1389 1383 1377 1371 1365 1358 1352 1346 1340 1334 1327 1321 1315 1307 1299 1292 1286 1280 1273 1266 1259 1253 1248 1243 1237 1230 1222 1214 1211 1210 1203 1200 1199 1198 1197 1196 1195 1195
1413 1407 1401 1395 1389 1382 1376 1371 1366 1359 1352 1346 1340 1335 1329 1322 1315 1309 1301 1291 1282 1274 1268 1262 1257 1250 1244 1239 1234 1228 1220 1213 1205 1200 1199 1195 1190 1189 1187 1185 1185 1186 1186
1407 1401 1395 1390 1383 1377 1371 1366 1361 1355 1347 1340 1333 1328 1322 1316 1309 1302 1294 1285 1275 1265 1258 1249 1243 1238 1234 1229 1224 1219 1213 1206 1199 1192 1189 1187 1183 1182 1178 1177 1178 1179 1180